Miscellaneous Local Product
Issued by NWS Hastings, NE

Home | Current Version | Previous Version | Graphics & Text | Print | Product List | Glossary On
Versions: 1 2 3 4 5 6 7 8 9 10 11 12 13 14 15 16 17 18 19 20 21 22 23 24 25 26 27 28 29 30 31 32 33 34 35 36 37 38 39 40 41 42 43 44 45 46 47 48 49 50
000
AXUS43 KGID 240502
MISGRI

GID CWA HOURLY WEATHER ROUNDUP
NATIONAL WEATHER SERVICE HASTINGS NE
1200 AM CDT SUN SEP 24 2017

NOTE: "FAIR" INDICATES FEW OR NO CLOUDS BELOW 12,000 FEET WITH NO
SIGNIFICANT WEATHER AND/OR OBSTRUCTIONS TO VISIBILITY.

...SOUTH CENTRAL NEBRASKA...

CITY           SKY/WX    TMP DP  RH WIND       PRES   REMARKS
GRAND ISLAND   PTCLDY    59  57  93 N5        29.88R
HASTINGS       PTCLDY    75  59  57 S10       29.88R
KEARNEY        CLEAR     58  57  97 E5        29.88R
ORD            CLOUDY    57  55  93 NW5       29.88R
YORK           MOCLDY    75  63  64 S13G18    29.88S
AURORA         PTCLDY    73  61  65 SE10      29.87S
LEXINGTON      LGT RAIN  58  56  93 N6        29.90F
HOLDREGE       CLOUDY    62  60  94 W3G18     29.89R
HEBRON         PTCLDY    75  61  60 S10G16    29.88S

...NEBRASKA PANHANDLE...

CITY           SKY/WX    TMP DP  RH WIND       PRES   REMARKS
CHADRON        CLOUDY    46  44  93 N7        29.98S
ALLIANCE       LGT RAIN  45  43  93 N9        29.96F
SCOTTSBLUFF    LGT RAIN  46  42  86 CALM      30.00R
SIDNEY         LGT RAIN  45  44  97 N13       29.98F

...WESTERN AND NORTH CENTRAL NEBRASKA...

CITY           SKY/WX    TMP DP  RH WIND       PRES   REMARKS
VALENTINE      LGT RAIN  51  49  92 N8        29.91F
AINSWORTH      HVY RAIN  50  50 100 NW7       29.94R
ONEILL         CLOUDY    55  55 100 NE3       29.90R
BROKEN BOW     LGT RAIN  55  54  96 N9        29.91R
IMPERIAL       LGT RAIN  53  51  93 N12       29.89F
NORTH PLATTE   LGT RAIN  53  52  96 E3        29.91S
MCCOOK         HVY RAIN  57  57 100 NE6       29.89R FOG

...EASTERN NEBRASKA...

CITY           SKY/WX    TMP DP  RH WIND       PRES   REMARKS
NORFOLK        MOCLDY    59  58  96 NE5       29.89F
SO SIOUX CITY  PTCLDY    66  62  87 VRB5      29.89S
TEKAMAH        MOCLDY    72  65  78 SE7       29.89R
COLUMBUS       CLOUDY    75  63  66 SE8       29.88S
ALBION         MOCLDY    58  56  93 CALM      29.89S
OMAHA EPPLEY   MOCLDY    79  66  64 S9        29.90S
MILLARD        CLOUDY    78  67  69 SE9       29.90S
LINCOLN        PTCLDY    77  63  61 S16       29.89S
NEBRASKA CITY  CLOUDY    74  67  79 S8        29.93S
BEATRICE       PTCLDY    78  64  63 S9G16     29.90S
FALLS CITY     CLEAR     72  66  81 SE5       29.92S

...NORTHERN KANSAS...

CITY           SKY/WX    TMP DP  RH WIND       PRES   REMARKS
GOODLAND       HVY RAIN  60  60 100 SE12      29.88S FOG
HILL CITY      CLOUDY    69  63  81 W17G24    29.89R
NORTON         CLOUDY    61  55  82 N8        29.87S
PHILLIPSBURG   MOCLDY    79  57  47 SE9       29.86R
SMITH CENTER   CLEAR     73  61  64 SE12G17   29.88R
HAYS           MOCLDY    75  60  59 SE12      29.87S
RUSSELL        PTCLDY    77  61  57 S17G25    29.86R
CONCORDIA      CLEAR     75  62  64 SE15      29.88S
SALINA         CLEAR     78  62  57 SE14      29.89S
TOPEKA         CLEAR     71  66  84 E3        29.92F



USA.gov is the U.S. government's official web portal to all federal, state and local government web resources and services.